F4ETJ-1 Weather Reports


time (UTC)temp
C
wind
direction
speed
KPH
gust
KPH
rain 1hr
cm
rain 24hr
cm
rain mn
cm
humidity
%
barometer
mb
20260504081708 14 124 0.0 3.2 0.08 1.19 1.19 95 1009.6
20260504081107 14 115 0.0 1.6 0.08 1.17 1.17 95 1009.6
20260503232945 14 212 3.2 8.0 0.05 0.56 0.56 91 1010.2
20260503232345 15 193 3.2 9.7 0.05 0.56 0.56 91 1010.2
20260503231744 15 71 3.2 9.7 0.05 0.56 0.56 91 1010.2
20260503231144 15 76 3.2 6.4 0.05 0.56 0.56 90 1010.2
20260503230545 15 90 1.6 6.4 0.05 0.56 0.56 89 1010.2
20260503225943 15 157 0.0 6.4 0.05 0.56 0.56 88 1010.3
20260503225343 15 132 0.0 1.6 0.00 0.51 0.51 88 1010.3
20260503224742 15 61 0.0 0.0 0.00 0.51 0.51 87 1010.3
20260503224142 15 61 0.0 0.0 0.00 0.51 0.51 88 1010.2
20260503223542 15 61 0.0 0.0 0.00 0.51 0.51 89 1010.2
20260503222941 15 61 0.0 0.0 0.00 0.51 0.51 89 1010.1
20260503222341 15 61 0.0 0.0 0.00 0.51 0.51 89 1010.2
20260503221741 15 61 0.0 0.0 0.00 0.51 0.51 89 1010.2
20260503221141 15 61 0.0 0.0 0.00 0.51 0.51 89 1010.1
20260503220540 15 61 0.0 0.0 0.00 0.51 0.51 90 1010.1
20260503215940 15 61 0.0 0.0 0.00 0.51 0.51 90 1010.1
20260503215339 15 61 0.0 0.0 0.00 0.51 0.51 89 1010.1
20260503214740 15 61 0.0 0.0 0.00 0.51 0.51 89 1010.2
20260503214139 15 61 0.0 0.0 0.00 0.51 0.51 89 1010.2
20260503213539 15 68 0.0 1.6 0.00 0.51 0.51 90 1010.1
20260503212938 15 153 0.0 0.0 0.00 0.51 0.51 90 1010.1
20260503212338 15 153 0.0 0.0 0.00 0.51 0.51 90 1010.1
20260503211737 15 153 0.0 0.0 0.00 0.51 0.51 90 1010.1
20260503211137 15 153 0.0 0.0 0.00 0.51 0.51 90 1010.1
20260503210537 15 153 0.0 0.0 0.00 0.51 0.51 90 1010.2
20260503205937 15 153 0.0 0.0 0.00 0.51 0.51 90 1010.3
20260503205336 15 151 0.0 0.0 0.00 0.51 0.51 89 1010.3
20260503204736 15 153 0.0 0.0 0.00 0.51 0.51 89 1010.3
20260503204136 16 153 0.0 0.0 0.00 0.51 0.51 88 1010.2
20260503203535 16 153 0.0 1.6 0.00 0.51 0.51 88 1010.2
20260503202935 16 153 0.0 0.0 0.00 0.51 0.51 87 1010.2
20260503202334 16 153 0.0 0.0 0.00 0.51 0.51 87 1010.1
20260503201734 16 153 0.0 0.0 0.00 0.51 0.51 87 1010.0
20260503201134 16 153 0.0 0.0 0.00 0.51 0.51 87 1009.9
20260503200533 16 153 0.0 0.0 0.00 0.51 0.51 87 1009.8
20260503195934 16 153 0.0 0.0 0.00 0.51 0.51 86 1009.7
20260503195333 16 153 0.0 0.0 0.00 0.51 0.51 85 1009.6
20260503194732 16 153 0.0 0.0 0.00 0.51 0.51 85 1009.5
20260503194132 16 153 0.0 0.0 0.00 0.51 0.51 84 1009.4
20260503193531 16 153 0.0 0.0 0.00 0.51 0.51 84 1009.2
20260503192932 16 153 0.0 0.0 0.00 0.51 0.51 84 1009.2
20260503192331 16 153 0.0 0.0 0.00 0.51 0.51 83 1009.0
20260503191730 16 153 0.0 0.0 0.00 0.51 0.51 83 1008.9
20260503191130 16 153 0.0 0.0 0.00 0.51 0.51 83 1008.8
20260503190530 16 153 0.0 0.0 0.00 0.51 0.51 83 1008.8
20260503185929 16 154 0.0 0.0 0.00 0.51 0.51 83 1008.8
20260503185329 17 154 0.0 1.6 0.00 0.51 0.51 82 1008.8
20260503184729 17 154 0.0 4.8 0.00 0.51 0.51 82 1008.6
20260503184129 17 155 0.0 1.6 0.00 0.51 0.51 82 1008.7
20260503183528 17 178 0.0 1.6 0.00 0.51 0.51 83 1008.7
20260503182928 17 97 0.0 1.6 0.00 0.51 0.51 83 1008.8
20260503182327 16 97 0.0 0.0 0.00 0.51 0.51 82 1008.8
20260503181727 16 97 0.0 0.0 0.00 0.51 0.51 82 1008.7
20260503181127 16 97 0.0 0.0 0.00 0.51 0.51 81 1008.8
20260503180526 16 98 0.0 3.2 0.00 0.51 0.51 80 1008.8
20260503175926 16 105 0.0 1.6 0.00 0.51 0.51 79 1008.9
20260503175326 17 93 0.0 0.0 0.00 0.51 0.51 78 1008.8
20260503174725 17 93 0.0 0.0 0.00 0.51 0.51 78 1008.8
20260503174125 16 93 1.6 1.6 0.00 0.51 0.51 78 1008.6
20260503173525 16 95 0.0 4.8 0.00 0.51 0.51 78 1008.5
20260503172924 16 92 0.0 3.2 0.00 0.51 0.51 78 1008.7
20260503172324 16 90 0.0 3.2 0.00 0.51 0.51 77 1008.8
20260503171724 16 97 1.6 9.7 0.00 0.51 0.51 78 1008.9
20260503171123 16 82 1.6 6.4 0.00 0.51 0.51 77 1008.8
20260503170523 17 95 1.6 4.8 0.00 0.51 0.51 78 1008.8